STARLINK-36113, 66982

Orbit data source: Space-Track

STARLINK-36113, 66982 is a payload satellite owned by SpaceX/Seattle (US) in LEO that was launched on Mon, 08 Dec 2025 UTC via an FALCON 9 launch vehicle from the Air Force Eastern Test Range (AFETR). Payload-class satellites include a variety of spacecraft equipped with specific instruments for various scientific and technological missions. These include communications satellites like Starlink; space stations such as the ISS; scientific satellites like the Hubble; Earth observation satellites from companies like Planet Labs, Umbra, and HawkEye 360; GPS; miniature CubeSats for education and research; and military/defense satellites.

Loading next visibility...
Identifier
66982, 2025-288Z
Orbit
LEO
Country
Flag of USUS
Related business
Manufacturer
SpaceX/Seattle
Mission
Operational Commercial Communications
Bus & Motor
STARLINK V2MO, Unknown motor
Mass
575 kg wet, ~530 kg dry
Launch date (UTC)
2025-12-08 (7 months ago)
Launch vehicle
FALCON 9
Launch site
Air Force Eastern Test Range (AFETR)
Object type
Payload
Rocket body
Debris
Shape & HBR
Box + 2 Pan, 17.7 m
Radar Cross Section
36.964 m², Large (>1 m²)

Expand to show TLE details & history
Last TLE update: 11 hours ago

TLE from 11 hours ago
0 STARLINK-36113
1 66982U 25288Z   26177.57118838  .00018395  00000-0  67629-3 0  9999
2 66982  43.0010 128.1809 0000934 273.0148  87.0597 15.27581831 31945
Epoch: 2026-06-26T13:42Z
TLE epoch observation values (Epoch: 2026-06-26T13:42:30.676Z)
Latitude
0.00002°
Longitude
7.85532°
Altitude
482.786 km
Speed
7.626 km/s
True Right ascension
08h 32m 43s
True Declination
0° 00' 00"
Sunlit
Object was in daylight at epoch
Visualization orbit readout
Latitude
Unknown
Longitude
Unknown
Altitude
Unknown
Speed
Unknown
Apparent Right ascension
Unknown
Apparent Declination
Unknown
Sunlit
N/A
Visualization observer readout
Local Sidereal Time
12:12:29
Azimuth
Unknown
Elevation
Unknown
Doppler factor
Unknown
Orbital elements
Apogee altitude
485.63 km
Perigee altitude
484.348 km
Semi-major axis
6,863.126 km
Eccentricity
0.00009
Inclination
43.001°
RAAN
128.1809°
Arg. of periapsis
273.0148°
True anomaly
87.07039°
Mean anomaly
87.0597°
Eccentric anomaly
87.06504°
Mean motion
3.81733 °/min
Orbital period
94.31 mins
BSTAR
0.00067629
Loading maneuver chart data...
Computing Atmospheric mass density...
Loading historical data...
Loading historical data...
Loading historical data...
Loading historical data...
Loading historical data...
Loading historical data...
Loading historical data...

Documentation

Showing up to 5 results
|